Location: Table Mountain
(47.2500°N, 120.5778°W)
Time: 18:54:02
(UTC-08:00)

Envisat - Pass Details

Date: 11 October 2017
Orbit: 764 x 766 km, 98.2° (Epoch: 11 December)

Event Time Altitude Azimuth Distance (km) Brightness Sun altitude
Exits shadow 22:31:23 10° 268° (W) 2,272 5.8 -40.6°
Maximum altitude 22:31:57 11° 275° (W) 2,261 5.9 -40.7°
Drops below altitude 10° 22:33:02 10° 288° (WNW) 2,307 6.0 -40.8°
Sets 22:37:37 0° 326° (NW) 3,242 7.1 -41.4°
